Zurück zum Katalog

STARLINK-11151

AktivKommunikationVLEO
NORAD 60049·PAYLOAD·🇺🇸 United States

Gestartet Jun 8, 2024 von Vandenberg Space Force Base

Loading…

Nächste Überflüge (nächste 24 Stunden)

TLE

AktuellSource: CelesTrak SupGP

Epoche: Sep 15, 2026, 03:40 UTC

1 60049C 24112M   26258.15326389  .00037696  00000+0  31089-3 0  2581
2 60049  53.1573  52.0424 0001159  69.1374 219.6736 15.69661985    19

Verfolge STARLINK-11151 in Echtzeit mit AllMySat

Download on the App Store